DLH7LF EDDF-LSGG

Flight info

Callsign DLH7LF
Flight time N/A
Altitude 29000
Route ANEKI2L/18 ANEKI Y163 PABLA/N0404F310 Y163 HERBI Y164 MOPAN DCT LUTIX DCT BENOT
Aircraft A20N/M-SDE2E3FGHIRWXY/LB1

Departure

Time 2026-04-15 10:34
Airport Frankfurt Main Airport (EDDF)

Arrival

Time N/A
Airport Geneva International Airport (LSGG)
Time Latitude Longitude Altitude Speed Heading
2026-04-15 09:52 50.04782 8.56779 365 ft 0 kts 114°
2026-04-15 10:20 50.04783 8.56778 365 ft 1 kts 114°
2026-04-15 10:20 50.04785 8.56769 365 ft 1 kts 116°
2026-04-15 10:20 50.04788 8.56760 372 ft 1 kts 117°
2026-04-15 10:20 50.04791 8.56751 369 ft 1 kts 119°
2026-04-15 10:21 50.04794 8.56743 367 ft 1 kts 121°
2026-04-15 10:21 50.04797 8.56734 368 ft 1 kts 120°
2026-04-15 10:21 50.04801 8.56726 367 ft 1 kts 120°
2026-04-15 10:21 50.04804 8.56717 370 ft 1 kts 133°
2026-04-15 10:22 50.04808 8.56710 369 ft 1 kts 147°
2026-04-15 10:22 50.04812 8.56706 368 ft 0 kts 158°
2026-04-15 10:22 50.04806 8.56706 369 ft 1 kts 181°
2026-04-15 10:22 50.04801 8.56701 365 ft 1 kts 209°
2026-04-15 10:23 50.04799 8.56697 365 ft 0 kts 228°
2026-04-15 10:23 50.04795 8.56690 366 ft 1 kts 225°
2026-04-15 10:23 50.04790 8.56684 365 ft 1 kts 218°
2026-04-15 10:23 50.04785 8.56679 368 ft 1 kts 214°
2026-04-15 10:25 50.04778 8.56671 367 ft 3 kts 214°
2026-04-15 10:25 50.04749 8.56640 369 ft 7 kts 221°
2026-04-15 10:25 50.04714 8.56572 368 ft 8 kts 232°
2026-04-15 10:26 50.04678 8.56483 368 ft 11 kts 247°
2026-04-15 10:26 50.04648 8.56350 368 ft 15 kts 250°
2026-04-15 10:26 50.04610 8.56189 371 ft 17 kts 249°
2026-04-15 10:26 50.04573 8.56040 370 ft 11 kts 248°
2026-04-15 10:27 50.04533 8.55959 368 ft 11 kts 203°
2026-04-15 10:27 50.04490 8.55937 368 ft 7 kts 196°
2026-04-15 10:27 50.04455 8.55923 367 ft 1 kts 194°
2026-04-15 10:27 50.04430 8.55913 366 ft 7 kts 192°
2026-04-15 10:28 50.04361 8.55920 365 ft 12 kts 162°
2026-04-15 10:28 50.04297 8.55954 370 ft 9 kts 161°
2026-04-15 10:28 50.04234 8.55911 368 ft 12 kts 238°
2026-04-15 10:28 50.04199 8.55765 365 ft 16 kts 250°
2026-04-15 10:29 50.04155 8.55583 366 ft 20 kts 249°
2026-04-15 10:29 50.04103 8.55375 368 ft 22 kts 249°
2026-04-15 10:29 50.04048 8.55143 369 ft 24 kts 249°
2026-04-15 10:29 50.03989 8.54893 367 ft 20 kts 250°
2026-04-15 10:30 50.03950 8.54729 371 ft 17 kts 249°
2026-04-15 10:30 50.03910 8.54562 365 ft 17 kts 250°
2026-04-15 10:30 50.03869 8.54396 367 ft 18 kts 244°
2026-04-15 10:30 50.03799 8.54214 370 ft 21 kts 251°
2026-04-15 10:31 50.03746 8.53990 370 ft 21 kts 250°
2026-04-15 10:31 50.03694 8.53770 365 ft 18 kts 249°
2026-04-15 10:31 50.03653 8.53598 365 ft 15 kts 249°
2026-04-15 10:31 50.03609 8.53425 365 ft 19 kts 249°
2026-04-15 10:32 50.03558 8.53216 368 ft 22 kts 250°
2026-04-15 10:32 50.03505 8.52994 370 ft 18 kts 249°
2026-04-15 10:32 50.03456 8.52810 368 ft 18 kts 245°
2026-04-15 10:32 50.03404 8.52631 371 ft 16 kts 237°
2026-04-15 10:33 50.03318 8.52593 367 ft 0 kts 180°
2026-04-15 10:33 50.03317 8.52593 367 ft 0 kts 180°
2026-04-15 10:33 50.03316 8.52593 367 ft 1 kts 180°
2026-04-15 10:34 50.03131 8.52595 366 ft 70 kts 179°
2026-04-15 10:34 50.02359 8.52599 375 ft 147 kts 180°
2026-04-15 10:34 50.01245 8.52596 949 ft 165 kts 179°
2026-04-15 10:34 50.00063 8.52595 1833 ft 176 kts 177°
2026-04-15 10:35 49.98806 8.52636 2568 ft 192 kts 176°
2026-04-15 10:35 49.97416 8.52688 3203 ft 208 kts 176°
2026-04-15 10:35 49.95895 8.52816 3814 ft 226 kts 173°
2026-04-15 10:35 49.94295 8.53013 4243 ft 232 kts 173°
2026-04-15 10:36 49.92695 8.53189 4304 ft 231 kts 174°
2026-04-15 10:36 49.91075 8.53333 4648 ft 235 kts 175°
2026-04-15 10:36 49.89450 8.53450 5611 ft 232 kts 176°
2026-04-15 10:36 49.87846 8.53556 6715 ft 231 kts 176°
2026-04-15 10:37 49.86218 8.53664 7567 ft 238 kts 177°
2026-04-15 10:37 49.85103 8.53736 8218 ft 238 kts 177°
2026-04-15 10:37 49.83444 8.53844 9098 ft 244 kts 178°
2026-04-15 10:37 49.81704 8.53956 9958 ft 251 kts 178°
2026-04-15 10:38 49.79949 8.54070 10808 ft 253 kts 179°
2026-04-15 10:38 49.78197 8.54156 11633 ft 257 kts 182°
2026-04-15 10:38 49.76387 8.53938 12328 ft 268 kts 187°
2026-04-15 10:38 49.74449 8.53655 12679 ft 292 kts 186°